Location: Newark
(49.8969°N, 3.3422°E)
Time: 23:19:40
(UTC+00:00)

Vanguard 1 Rocket - Pass Details

Date: 26 January 2020
Orbit: 650 x 4226 km, 34.3° (Epoch: 23 February)

Event Time Altitude Azimuth Distance (km) Brightness Sun altitude
Rises 13:27:45 0° 264° (W) 5,191 11.7 18.6°
Reaches altitude 10° 13:30:54 10° 256° (WSW) 4,593 11.6 18.4°
Maximum altitude 13:43:10 38° 195° (SSW) 4,098 12.3 17.6°
Drops below altitude 10° 14:02:55 10° 139° (SE) 7,241 12.3 16.1°
Sets 14:09:45 0° 132° (SE) 8,441 12.5 15.5°
